Westminster, MD

4:21 PM EDT on April 26, 2017 (GMT -0400)
Carroll County Regional-Poage

Weather History for KDMW - April, 2013

Change the Weather History Date:

Saturday, April 13, 2013

  Actual Average (KTHV) Record (KTHV)
Temperature  
Mean Temperature 54 °F -  
Max Temperature 64 °F 0 °F 82 °F (2014)
Min Temperature 44 °F - 23 °F (2009)
Degree Days  
Heating Degree Days 11    
Growing Degree Days 4 (Base 50)    
Moisture  
Dew Point 36 °F    
Average Humidity 55    
Maximum Humidity 93    
Minimum Humidity 26    
Precipitation  
Precipitation 0.00 in - - ()
Sea Level Pressure  
Sea Level Pressure 29.89 in    
Wind  
Wind Speed 6 mph (WNW)    
Max Wind Speed 14 mph    
Max Gust Speed 23 mph    
Visibility 10 miles    
Events      
Averages and records for this station are not official NWS values.
T = Trace of Precipitation, MM = Missing Value Source: NWS Daily Summary

Daily Weather History Graph

Daily Weather History Graph

Search for Another Location

Airport or City:

Trip Planner

Search our weather history database for the weather conditions in past years. The results will help you decide how hot, cold, wet, or windy it might be!

Date:

Astronomy

Apr. 13, 2013 Rise Set
Actual Time 6:33 AM EDT 7:44 PM EDT
Civil Twilight 6:05 AM EDT 8:12 PM EDT
Nautical Twilight 5:32 AM EDT 8:45 PM EDT
Astronomical Twilight 4:57 AM EDT 9:20 PM EDT
Moon 8:23 AM EDT (4/13) 11:05 PM EDT (4/13)
Length of Visible Light 14h 06m
Length of Day
13h 10m
Waxing Crescent, 10% of the Moon is Illuminated
Apr 13
Waxing Crescent
Apr 18
First Quarter
Apr 25
Full
May 2
Last Quarter
May 9
New

Hourly Weather History & Observations

Time (EDT) Temp. Windchill Dew Point Humidity Pressure Visibility Wind Dir Wind Speed Gust Speed Precip Events Conditions
12:10 AM 46.4 °F 41.9 °F 44.6 °F 93% 29.79 in 2.5 mi North 9.2 mph - N/A   Mostly Cloudy
12:30 AM 46.4 °F 42.9 °F 44.6 °F 93% 29.80 in 3.0 mi NNW 6.9 mph - N/A   Mostly Cloudy
12:50 AM 46.4 °F 43.5 °F 44.6 °F 93% 29.81 in 4.0 mi North 5.8 mph - N/A   Scattered Clouds
1:10 AM 46.4 °F 44.3 °F 44.6 °F 93% 29.81 in 5.0 mi NNW 4.6 mph - N/A   Clear
1:30 AM 46.4 °F 45.2 °F 44.6 °F 93% 29.82 in 7.0 mi NNW 3.5 mph - N/A   Clear
1:50 AM 46.4 °F 45.2 °F 42.8 °F 87% 29.82 in 7.0 mi NNW 3.5 mph - N/A   Clear
2:25 AM 46.4 °F 43.5 °F 42.8 °F 87% 29.82 in 7.0 mi NW 5.8 mph - N/A   Clear
2:50 AM 46.4 °F - 39.2 °F 76% 29.82 in 10.0 mi Calm Calm - N/A   Clear
3:10 AM 46.4 °F - 37.4 °F 71% 29.82 in 10.0 mi Calm Calm - N/A   Clear
3:30 AM 46.4 °F - 37.4 °F 71% 29.83 in 10.0 mi Calm Calm - N/A   Clear
3:50 AM 44.6 °F 43.1 °F 37.4 °F 76% 29.84 in 10.0 mi NW 3.5 mph - N/A   Clear
4:10 AM 44.6 °F - 37.4 °F 76% 29.84 in 10.0 mi Calm Calm - N/A   Mostly Cloudy
4:30 AM 44.6 °F - 39.2 °F 81% 29.85 in 10.0 mi Calm Calm - N/A   Overcast
4:50 AM 44.6 °F - 39.2 °F 81% 29.85 in 10.0 mi Calm Calm - N/A   Scattered Clouds
5:10 AM 44.6 °F 42.2 °F 35.6 °F 71% 29.85 in 10.0 mi NW 4.6 mph - N/A   Clear
5:50 AM 46.4 °F - 33.8 °F 62% 29.86 in 10.0 mi Calm Calm - N/A   Scattered Clouds
6:10 AM 46.4 °F - 35.6 °F 66% 29.86 in 10.0 mi Calm Calm - N/A   Mostly Cloudy
6:30 AM 44.6 °F 41.4 °F 35.6 °F 71% 29.87 in 10.0 mi WNW 5.8 mph - N/A   Scattered Clouds
6:50 AM 46.4 °F 43.5 °F 35.6 °F 66% 29.88 in 10.0 mi WNW 5.8 mph - N/A   Unknown
7:10 AM 46.4 °F 45.2 °F 33.8 °F 62% 29.89 in 10.0 mi WNW 3.5 mph - N/A   Clear
7:50 AM 46.4 °F 43.5 °F 33.8 °F 62% 29.90 in 10.0 mi West 5.8 mph - N/A   Scattered Clouds
8:10 AM 48.2 °F - 33.8 °F 58% 29.91 in 10.0 mi WNW 6.9 mph - N/A   Clear
8:30 AM 48.2 °F - 33.8 °F 58% 29.92 in 10.0 mi WNW 8.1 mph - N/A   Clear
8:50 AM 50.0 °F - 35.6 °F 58% 29.92 in 10.0 mi NW 9.2 mph - N/A   Clear
9:10 AM 50.0 °F - 35.6 °F 58% 29.93 in 10.0 mi WNW 8.1 mph - N/A   Scattered Clouds
9:50 AM 50.0 °F - 33.8 °F 54% 29.94 in 10.0 mi WNW 12.7 mph 16.1 mph N/A   Scattered Clouds
10:10 AM 50.0 °F - 32.0 °F 50% 29.94 in 10.0 mi NW 6.9 mph - N/A   Scattered Clouds
10:30 AM 51.8 °F - 30.2 °F 44% 29.93 in 10.0 mi NW 5.8 mph 9.2 mph N/A   Scattered Clouds
10:50 AM 51.8 °F - 28.4 °F 41% 29.94 in 10.0 mi WNW 10.4 mph 18.4 mph N/A   Clear
11:10 AM 51.8 °F - 30.2 °F 44% 29.94 in 10.0 mi WNW 12.7 mph 17.3 mph N/A   Scattered Clouds
11:30 AM 51.8 °F - 30.2 °F 44% 29.94 in 10.0 mi West 8.1 mph - N/A   Scattered Clouds
11:50 AM 53.6 °F - 26.6 °F 35% 29.94 in 10.0 mi West 11.5 mph 17.3 mph N/A   Scattered Clouds
12:10 PM 53.6 °F - 28.4 °F 38% 29.94 in 10.0 mi WNW 12.7 mph - N/A   Scattered Clouds
12:30 PM 55.4 °F - 37.4 °F 51% 29.93 in 10.0 mi NW 10.4 mph 16.1 mph N/A   Scattered Clouds
12:50 PM 55.4 °F - 37.4 °F 51% 29.92 in 10.0 mi West 5.8 mph - N/A   Scattered Clouds
1:10 PM 55.4 °F - 39.2 °F 54% 29.92 in 10.0 mi West 10.4 mph - N/A   Scattered Clouds
1:30 PM 57.2 °F - 39.2 °F 51% 29.92 in 10.0 mi West 10.4 mph - N/A   Scattered Clouds
1:50 PM 57.2 °F - 39.2 °F 51% 29.91 in 10.0 mi West 12.7 mph 19.6 mph N/A   Scattered Clouds
2:10 PM 57.2 °F - 30.2 °F 36% 29.90 in 10.0 mi West 11.5 mph - N/A   Scattered Clouds
2:30 PM 59.0 °F - 30.2 °F 34% 29.90 in 10.0 mi SW 8.1 mph 16.1 mph N/A   Scattered Clouds
2:50 PM 59.0 °F - 33.8 °F 39% 29.89 in 10.0 mi West 9.2 mph - N/A   Scattered Clouds
3:10 PM 60.8 °F - 41.0 °F 48% 29.88 in 10.0 mi WSW 11.5 mph 17.3 mph N/A   Clear
3:30 PM 60.8 °F - 37.4 °F 42% 29.88 in 10.0 mi West 11.5 mph - N/A   Clear
3:50 PM 62.6 °F - 33.8 °F 34% 29.88 in 10.0 mi WSW 12.7 mph 18.4 mph N/A   Scattered Clouds
4:10 PM 62.6 °F - 33.8 °F 34% 29.88 in 10.0 mi WSW 13.8 mph 19.6 mph N/A   Scattered Clouds
4:30 PM 64.4 °F - 32.0 °F 30% 29.87 in 10.0 mi WSW 12.7 mph 19.6 mph N/A   Clear
4:50 PM 62.6 °F - 32.0 °F 32% 29.85 in 10.0 mi WSW 5.8 mph - N/A   Clear
5:10 PM 64.4 °F - 30.2 °F 28% 29.86 in 10.0 mi WSW 12.7 mph 23.0 mph N/A   Clear
5:30 PM 64.4 °F - 30.2 °F 28% 29.86 in 10.0 mi SW 9.2 mph - N/A   Clear
5:50 PM 64.4 °F - 30.2 °F 28% 29.86 in 10.0 mi SW 8.1 mph - N/A   Clear
6:10 PM 64.4 °F - 28.4 °F 26% 29.87 in 10.0 mi West 10.4 mph - N/A   Clear
6:30 PM 64.4 °F - 32.0 °F 30% 29.87 in 10.0 mi WSW 6.9 mph - N/A   Clear
6:50 PM 64.4 °F - 30.2 °F 28% 29.87 in 10.0 mi WSW 5.8 mph - N/A   Clear
7:10 PM 64.4 °F - 30.2 °F 28% 29.87 in 10.0 mi WSW 4.6 mph - N/A   Clear
7:30 PM 62.6 °F - 32.0 °F 32% 29.87 in 10.0 mi WSW 3.5 mph - N/A   Clear
7:50 PM 62.6 °F - 32.0 °F 32% 29.88 in 10.0 mi Calm Calm - N/A   Clear
8:10 PM 62.6 °F - 32.0 °F 32% 29.88 in 10.0 mi Calm Calm - N/A   Clear
8:30 PM 60.8 °F - 32.0 °F 34% 29.89 in 10.0 mi Calm Calm - N/A   Clear
8:50 PM 60.8 °F - 33.8 °F 36% 29.91 in 10.0 mi Calm Calm - N/A   Clear
9:10 PM 60.8 °F - 32.0 °F 34% 29.91 in 10.0 mi Calm Calm - N/A   Clear
9:30 PM 55.4 °F - 39.2 °F 54% 29.92 in 10.0 mi SE 3.5 mph - N/A   Clear
9:50 PM 53.6 °F - 41.0 °F 62% 29.94 in 10.0 mi Calm Calm - N/A   Clear
10:10 PM 53.6 °F - 46.4 °F 77% 29.95 in 10.0 mi NNE 3.5 mph - N/A   Clear
10:50 PM 51.8 °F - 42.8 °F 71% 29.96 in 10.0 mi NE 6.9 mph - N/A   Clear
11:10 PM 50.0 °F - 42.8 °F 76% 29.96 in 10.0 mi NE 8.1 mph - N/A   Clear
11:30 PM 51.8 °F - 41.0 °F 67% 29.96 in 10.0 mi NE 3.5 mph - N/A   Clear
11:50 PM 51.8 °F - 41.0 °F 67% 29.97 in 10.0 mi NE 3.5 mph - N/A   Clear